Weather History for CWUW - October, 2013

Change the Weather History Date:

Sunday, October 6, 2013

  Actual Average Record
Temperature  
Mean Temperature 9 °F -  
Max Temperature 12 °F 20 °F 30 °F (1998)
Min Temperature 6 °F 14 °F 3 °F (2005)
Degree Days  
Heating Degree Days 56    
Moisture  
Dew Point -    
Average Humidity    
Maximum Humidity    
Minimum Humidity    
Precipitation  
Precipitation 0.00 in - - ()
Sea Level Pressure  
Sea Level Pressure 30.12 in    
Wind  
Wind Speed 11 mph ()    
Max Wind Speed 17 mph    
Max Gust Speed -    
Visibility 5.7 miles    
Events Rain , Snow    
Averages and records for this station are not official NWS values.
T = Trace of Precipitation, MM = Missing Value Source: Averaged Metar Reports

Daily Weather History Graph

Daily Weather History Graph

Search for Another Location

Airport or City:

Trip Planner

Search our weather history database for the weather conditions in past years. The results will help you decide how hot, cold, wet, or windy it might be!

Date:

Astronomy

Oct. 06, 2013 Rise Set
Actual Time 7:18 AM EDT 5:45 PM EDT
Civil Twilight 6:20 AM EDT 6:42 PM EDT
Nautical Twilight 5:13 AM EDT 7:49 PM EDT
Astronomical Twilight 3:59 AM EDT 9:01 PM EDT
Moon 10:12 AM EDT (10/6) 5:21 PM EDT (10/6)
Length of Visible Light 12h 22m
Length of Day
10h 27m
Waxing Crescent, 3% of the Moon is Illuminated
Oct 6
Waxing Crescent
Oct 11
First Quarter
Oct 18
Full
Oct 26
Last Quarter
Nov 3
New

Hourly Weather History & Observations

Time (EDT) Temp. Windchill Dew Point Humidity Pressure Visibility Wind Dir Wind Speed Gust Speed Precip Events Conditions
12:00 AM 6.8 °F -7.8 °F - N/A% 30.16 in 9.0 mi WNW 10.4 mph - N/A   Mostly Cloudy
1:00 AM 6.8 °F -7.8 °F - N/A% 30.16 in 9.0 mi NW 10.4 mph - N/A   Scattered Clouds
2:00 AM 6.8 °F -9.3 °F - N/A% 30.17 in 9.0 mi WNW 12.7 mph - N/A   Partly Cloudy
2:58 AM 6.8 °F -8.6 °F - N/A% 30.01 in 9.0 mi NW 11.5 mph - N/A   Overcast
3:00 AM 6.8 °F -8.6 °F - N/A% 30.18 in 9.0 mi NW 11.5 mph - N/A   Overcast
3:34 AM 6.8 °F -8.6 °F - N/A% 30.00 in 9.0 mi WNW 11.5 mph - N/A   Partly Cloudy
3:49 AM 6.8 °F -8.6 °F - N/A% 30.00 in 9.0 mi WNW 11.5 mph - N/A   Partly Cloudy
4:00 AM 6.8 °F -8.6 °F - N/A% 30.19 in 9.0 mi WNW 11.5 mph - N/A   Unknown
4:14 AM 6.8 °F -9.3 °F - N/A% 30.01 in 9.0 mi WNW 12.7 mph - N/A   Overcast
4:28 AM 8.6 °F -7.7 °F - N/A% 30.01 in 9.0 mi WNW 13.8 mph - N/A   Overcast
4:39 AM 8.6 °F -7.7 °F - N/A% 30.01 in 2.8 mi WNW 13.8 mph - N/A   Overcast
4:54 AM 8.6 °F -8.9 °F - N/A% 30.02 in 1.4 mi WNW 16.1 mph - N/A   Overcast
4:59 AM 8.6 °F -8.9 °F - N/A% 30.01 in 1.0 mi WNW 16.1 mph - N/A   Overcast
5:00 AM 8 °F - - % 30.19 in 1 mi WNW 16.1 mph - -   Overcast
5:00 AM 8.6 °F -8.3 °F - N/A% 30.19 in 1.0 mi WNW 15.0 mph - N/A   Overcast
5:07 AM 8.6 °F -8.9 °F - N/A% 30.01 in 1.2 mi WNW 16.1 mph - N/A   Overcast
5:11 AM 8.6 °F -8.3 °F - N/A% 30.01 in 1.0 mi WNW 15.0 mph - N/A   Overcast
5:13 AM 8.6 °F -8.3 °F - N/A% 30.01 in 0.6 mi WNW 15.0 mph - N/A   Overcast
5:18 AM 8.6 °F -8.3 °F - N/A% 30.01 in 0.4 mi WNW 15.0 mph - N/A   Overcast
6:00 AM 10.4 °F -7.2 °F - N/A% 30.20 in 0.4 mi WNW 17.3 mph - N/A   Overcast
6:13 AM 10.4 °F -6.0 °F - N/A% 30.02 in 0.8 mi WNW 15.0 mph - N/A   Overcast
6:18 AM 10.4 °F -6.0 °F - N/A% 30.02 in 1.5 mi West 15.0 mph - N/A   Overcast
6:32 AM 10.4 °F -5.4 °F - N/A% 30.02 in 8.0 mi WNW 13.8 mph - N/A   Overcast
6:59 AM 10.4 °F -4.8 °F - N/A% 30.03 in 9.0 mi WNW 12.7 mph - N/A   Overcast
7:00 AM 10.4 °F -4.8 °F - N/A% 30.20 in 9.0 mi WNW 12.7 mph - N/A   Overcast
7:07 AM 8.6 °F -6.3 °F - N/A% 30.03 in 0.4 mi NNW 11.5 mph - N/A   Overcast
7:35 AM 8.6 °F -4.7 °F - N/A% 30.03 in 0.1 mi NW 9.2 mph - N/A   Overcast
8:00 AM 9 °F - - % 30.21 in 0 mi NNW 11.5 mph - -   Overcast
8:00 AM 8.6 °F -6.3 °F - N/A% 30.21 in 0.1 mi NW 11.5 mph - N/A   Overcast
9:00 AM 8.6 °F -5.5 °F - N/A% 30.21 in 0.1 mi WNW 10.4 mph - N/A Snow Light Snow
9:07 AM 8.6 °F -5.5 °F - N/A% 30.03 in 0.1 mi WNW 10.4 mph - N/A   Overcast
9:38 AM 8.6 °F -5.5 °F - N/A% 30.04 in 0.2 mi WNW 10.4 mph - N/A   Overcast
9:50 AM 8.6 °F -5.5 °F - N/A% 30.04 in 0.1 mi WNW 10.4 mph - N/A   Clear
10:00 AM 6.8 °F -7.8 °F - N/A% 30.22 in 0.1 mi WNW 10.4 mph - N/A   Clear
11:00 AM 8 °F - - % 30.23 in 0 mi NW 10.4 mph - -   Overcast
11:00 AM 8.6 °F -4.7 °F - N/A% 30.23 in 0.1 mi NW 9.2 mph - N/A   Overcast
11:53 AM 6.8 °F -4.8 °F - N/A% 30.05 in 0.4 mi WNW 6.9 mph - N/A   Overcast
12:00 PM 6.8 °F -4.8 °F - N/A% 30.24 in 0.4 mi WNW 6.9 mph - N/A   Overcast
12:09 PM 6.8 °F -5.9 °F - N/A% 30.05 in 0.8 mi NW 8.1 mph - N/A   Unknown
12:10 PM 6.8 °F -5.9 °F - N/A% 30.05 in 1.0 mi WNW 8.1 mph - N/A   Unknown
12:19 PM 6.8 °F -2.0 °F - N/A% 30.05 in 0.6 mi NW 4.6 mph - N/A   Mostly Cloudy
12:27 PM 6.8 °F -4.8 °F - N/A% 30.05 in 1.1 mi WNW 6.9 mph - N/A   Mostly Cloudy
12:30 PM 6.8 °F -2.0 °F - N/A% 30.06 in 1.4 mi WNW 4.6 mph - N/A   Mostly Cloudy
12:31 PM 6.8 °F -2.0 °F - N/A% 30.05 in 3.0 mi WNW 4.6 mph - N/A   Mostly Cloudy
1:00 PM 8.6 °F 2.0 °F - N/A% 30.24 in 9.0 mi North 3.5 mph - N/A   Overcast
2:00 PM 8 °F - - % 30.25 in 9 mi NW 11.5 mph - -   Overcast
2:00 PM 8.6 °F -7.0 °F - N/A% 30.25 in 9.0 mi NW 12.7 mph - N/A   Overcast
3:00 PM 8.6 °F 2.0 °F - N/A% 30.27 in 9.0 mi WNW 3.5 mph - N/A   Unknown
4:00 PM 8.6 °F -7.0 °F - N/A% 30.25 in 9.0 mi NNW 12.7 mph - N/A   Unknown
4:39 PM 10.4 °F -4.8 °F - N/A% 30.08 in 9.0 mi NNW 12.7 mph - N/A   Overcast
5:00 PM 10 °F - - % 30.26 in 9 mi NNW 13.8 mph - -   Overcast
5:00 PM 10.4 °F -5.4 °F - N/A% 30.26 in 9.0 mi NNW 13.8 mph - N/A   Overcast
5:24 PM 10.4 °F -5.4 °F - N/A% 30.08 in 9.0 mi NNW 13.8 mph - N/A Rain Light Freezing Rain
5:33 PM 10.4 °F -4.8 °F - N/A% 30.10 in 9.0 mi NNW 12.7 mph - N/A Rain Light Freezing Rain
5:38 PM 10.4 °F -4.8 °F - N/A% 30.09 in 9.0 mi NNW 12.7 mph - N/A   Overcast
5:50 PM 10.4 °F -4.8 °F - N/A% 30.09 in 9.0 mi NNW 12.7 mph - N/A Snow Light Snow
5:57 PM 10.4 °F -6.0 °F - N/A% 30.09 in 9.0 mi NNW 15.0 mph - N/A   Overcast
5:58 PM 12.2 °F -3.7 °F - N/A% 30.09 in 9.0 mi NNW 15.0 mph - N/A Snow Light Snow
6:00 PM 12.2 °F -3.7 °F - N/A% 30.28 in 9.0 mi NW 15.0 mph - N/A Snow Light Snow
7:00 PM 12.2 °F -2.5 °F - N/A% 30.27 in 5.0 mi NNW 12.7 mph - N/A Snow Light Snow
7:14 PM 12.2 °F -1.8 °F - N/A% 30.09 in 9.0 mi NNW 11.5 mph - N/A   Overcast
7:16 PM 12.2 °F -2.5 °F - N/A% 30.09 in 9.0 mi NNW 12.7 mph - N/A Snow Light Snow
7:33 PM 12.2 °F -3.7 °F - N/A% 30.09 in 9.0 mi NNW 15.0 mph - N/A   Overcast
7:37 PM 12.2 °F -3.1 °F - N/A% 30.10 in 9.0 mi NNW 13.8 mph - N/A   Overcast
7:51 PM 10.4 °F -4.1 °F - N/A% 30.10 in 9.0 mi North 11.5 mph - N/A   Overcast
8:00 PM 11 °F - - % 30.27 in 9 mi NNW 12.7 mph - -   Overcast
8:00 PM 12.2 °F -3.1 °F - N/A% 30.27 in 9.0 mi NNW 13.8 mph - N/A   Overcast
8:05 PM 12.2 °F -3.7 °F - N/A% 30.09 in 9.0 mi NNW 15.0 mph - N/A   Mostly Cloudy
9:00 PM 8.6 °F -6.3 °F - N/A% 30.27 in 9.0 mi NNW 11.5 mph - N/A   Unknown
9:47 PM 8.6 °F -7.0 °F - N/A% 30.09 in 9.0 mi NNW 12.7 mph - N/A   Mostly Cloudy
9:54 PM 8.6 °F -7.7 °F - N/A% 30.09 in 9.0 mi NNW 13.8 mph - N/A   Scattered Clouds
10:00 PM 8.6 °F -8.3 °F - N/A% 30.27 in 9.0 mi NNW 15.0 mph - N/A   Partly Cloudy
10:06 PM 8.6 °F -8.3 °F - N/A% 30.08 in 9.0 mi NW 15.0 mph - N/A   Partly Cloudy
10:17 PM 8.6 °F -7.7 °F - N/A% 30.09 in 9.0 mi NW 13.8 mph - N/A   Mostly Cloudy
10:25 PM 8.6 °F -7.0 °F - N/A% 30.09 in 9.0 mi NNW 12.7 mph - N/A   Overcast
10:26 PM 8.6 °F -7.0 °F - N/A% 30.09 in 9.0 mi NNW 12.7 mph - N/A   Overcast
11:00 PM 8.6 °F -6.3 °F - N/A% 30.26 in 9.0 mi NNW 11.5 mph - N/A   Overcast
11:15 PM 8.6 °F -5.5 °F - N/A% 30.08 in 9.0 mi NNW 10.4 mph - N/A   Overcast
11:50 PM 6.8 °F -9.3 °F - N/A% 30.07 in 9.0 mi NNW 12.7 mph - N/A   Overcast